User: anonymous   Login
Location: Unspecified
(0.0000°N, 0.0000°E)
Time: 06:05:48
(UTC+00:00)
Language:

Galileo 6 - Orbit

View from above orbital plane
View from above orbital plane
View from above satellite
View from above satellite

Ground track
Ground track

The orbit data is extracted from the following two-line orbital elements,

1 40129U 14050B   18231.83839150 -.00000100 +00000-0 +00000-0 0  9990
2 40129 050.5475 027.0561 1654861 078.7845 299.3331 01.85519750027454
Epoch (UTC): 19 August 2018 20:07:17
Eccentricity: 0.1654861
inclination: 50.5475°
perigee height: 16969 km
apogee height: 26229 km
right ascension of ascending node: 27.0561°
argument of perigee: 78.7845°
revolutions per day: 1.85519750
mean anomaly at epoch: 299.3331°
orbit number at epoch: 2745

The dashed part of the orbit path shows where the satellite is in the earth's shadow,  

DLR